| time (UTC) | temp C | wind direction | speed KPH | gust KPH | rain 1hr cm | rain 24hr cm | rain mn cm | humidity % | barometer mb |
| 20260901030045 | 20 | 124 | 4.8 | 11.3 | 0.00 | 1.75 | 0.38 | 83 | 1017.0 |
| 20260901024509 | 20 | 124 | 4.8 | 12.9 | 0.00 | 1.75 | 0.38 | 83 | 1017.0 |
| 20260901023048 | 20 | 124 | 4.8 | 11.3 | 0.00 | 1.75 | 0.38 | 84 | 1017.3 |
| 20260901021510 | 20 | 191 | 1.6 | 8.0 | 0.00 | 1.75 | 0.38 | 85 | 1017.2 |
| 20260901020051 | 20 | 124 | 4.8 | 14.5 | 0.00 | 1.75 | 0.38 | 86 | 1017.3 |
| 20260901014509 | 20 | 124 | 3.2 | 6.4 | 0.00 | 1.75 | 0.38 | 87 | 1017.2 |
| 20260901013041 | 20 | 124 | 3.2 | 12.9 | 0.00 | 1.75 | 0.38 | 87 | 1017.2 |
| 20260901010045 | 20 | 124 | 0.0 | 9.7 | 0.00 | 1.75 | 0.38 | 86 | 1017.4 |
| 20260901004518 | 20 | 124 | 3.2 | 11.3 | 0.00 | 1.75 | 0.38 | 86 | 1017.3 |
| 20260901003040 | 20 | 124 | 1.6 | 14.5 | 0.00 | 1.75 | 0.38 | 85 | 1017.5 |
| 20260901001515 | 20 | 209 | 3.2 | 9.7 | 0.00 | 1.75 | 0.38 | 85 | 1017.6 |
| 20260901000046 | 20 | 124 | 1.6 | 8.0 | 0.00 | 1.75 | 0.38 | 86 | 1017.5 |
| 20260831234512 | 20 | 124 | 1.6 | 12.9 | 0.00 | 1.75 | 0.38 | 86 | 1017.5 |
| 20260831233059 | 20 | 124 | 1.6 | 8.0 | 0.00 | 1.75 | 0.38 | 86 | 1017.4 |
| 20260831231521 | 20 | 124 | 3.2 | 12.9 | 0.00 | 1.75 | 0.38 | 85 | 1017.4 |
| 20260831230104 | 20 | 124 | 3.2 | 14.5 | 0.00 | 1.75 | 0.38 | 85 | 1017.5 |
| 20260831224526 | 20 | 124 | 4.8 | 12.9 | 0.00 | 1.75 | 0.38 | 85 | 1017.5 |
| 20260831223023 | 21 | 124 | 1.6 | 8.0 | 0.00 | 1.75 | 0.38 | 83 | 1017.5 |
| 20260831221547 | 21 | 124 | 0.0 | 8.0 | 0.00 | 1.75 | 0.38 | 84 | 1017.6 |
| 20260831220007 | 21 | 124 | 1.6 | 11.3 | 0.00 | 1.75 | 0.38 | 83 | 1017.5 |
| 20260831214556 | 22 | 124 | 1.6 | 9.7 | 0.00 | 1.75 | 0.38 | 81 | 1017.6 |
| 20260831213009 | 22 | 124 | 4.8 | 9.7 | 0.00 | 1.75 | 0.38 | 80 | 1017.7 |
| 20260831211554 | 22 | 124 | 4.8 | 8.0 | 0.00 | 1.75 | 0.38 | 81 | 1017.7 |
| 20260831210032 | 22 | 124 | 3.2 | 11.3 | 0.00 | 1.75 | 0.38 | 82 | 1017.4 |
| 20260831204609 | 22 | 124 | 0.0 | 9.7 | 0.00 | 1.75 | 0.38 | 81 | 1017.4 |
| 20260831203028 | 23 | 234 | 6.4 | 14.5 | 0.00 | 1.75 | 0.38 | 77 | 1017.8 |
| 20260831201505 | 23 | 124 | 8.0 | 16.1 | 0.00 | 1.75 | 0.38 | 77 | 1017.6 |
| 20260831200042 | 23 | 198 | 1.6 | 11.3 | 0.00 | 1.75 | 0.38 | 68 | 1017.7 |
| 20260831194607 | 23 | 124 | 3.2 | 6.4 | 0.00 | 1.75 | 0.38 | 70 | 1017.8 |
| 20260831193028 | 22 | 150 | 0.0 | 9.7 | 0.00 | 1.75 | 0.38 | 71 | 1017.6 |
| 20260831191554 | 22 | 148 | 0.0 | 8.0 | 0.00 | 1.75 | 0.38 | 70 | 1018.0 |
| 20260831190011 | 22 | 148 | 1.6 | 8.0 | 0.00 | 1.75 | 0.38 | 66 | 1018.0 |
| 20260831184550 | 22 | 147 | 1.6 | 8.0 | 0.00 | 1.75 | 0.38 | 64 | 1018.3 |
| 20260831183014 | 22 | 145 | 3.2 | 8.0 | 0.00 | 1.75 | 0.38 | 68 | 1017.9 |
| 20260831181608 | 22 | 86 | 4.8 | 11.3 | 0.00 | 1.75 | 0.38 | 64 | 1018.1 |
| 20260831180037 | 23 | 189 | 3.2 | 11.3 | 0.00 | 1.75 | 0.38 | 63 | 1018.4 |
| 20260831174503 | 23 | 146 | 4.8 | 11.3 | 0.00 | 1.75 | 0.38 | 63 | 1018.1 |
| 20260831173038 | 22 | 153 | 1.6 | 9.7 | 0.00 | 1.75 | 0.38 | 65 | 1018.3 |
| 20260831171609 | 22 | 104 | 3.2 | 12.9 | 0.00 | 1.75 | 0.38 | 68 | 1018.4 |
| 20260831170035 | 22 | 119 | 3.2 | 9.7 | 0.00 | 1.75 | 0.38 | 69 | 1018.6 |
| 20260831164614 | 22 | 147 | 4.8 | 14.5 | 0.00 | 1.75 | 0.38 | 68 | 1018.6 |
| 20260831163037 | 22 | 156 | 6.4 | 17.7 | 0.00 | 1.75 | 0.38 | 68 | 1018.6 |
| 20260831161505 | 22 | 72 | 8.0 | 14.5 | 0.00 | 1.75 | 0.38 | 73 | 1018.7 |
| 20260831160028 | 21 | 96 | 8.0 | 17.7 | 0.00 | 1.75 | 0.38 | 76 | 1018.6 |
| 20260831154613 | 21 | 68 | 8.0 | 17.7 | 0.00 | 1.75 | 0.38 | 77 | 1019.1 |
| 20260831153031 | 21 | 64 | 4.8 | 16.1 | 0.00 | 1.75 | 0.38 | 78 | 1019.1 |
| 20260831151600 | 21 | 54 | 6.4 | 14.5 | 0.00 | 1.75 | 0.38 | 78 | 1018.9 |
| 20260831150019 | 21 | 75 | 3.2 | 12.9 | 0.00 | 1.75 | 0.38 | 78 | 1019.0 |
| 20260831144536 | 21 | 29 | 6.4 | 14.5 | 0.00 | 1.75 | 0.38 | 77 | 1019.0 |
| 20260831143114 | 21 | 66 | 6.4 | 16.1 | 0.00 | 1.75 | 0.38 | 79 | 1018.8 |
| 20260831141539 | 21 | 37 | 8.0 | 16.1 | 0.00 | 1.75 | 0.38 | 82 | 1018.9 |
| 20260831140003 | 20 | 60 | 8.0 | 17.7 | 0.00 | 1.75 | 0.38 | 85 | 1018.7 |
| 20260831134546 | 20 | 100 | 8.0 | 17.7 | 0.00 | 1.75 | 0.38 | 85 | 1018.4 |
| 20260831133007 | 20 | 37 | 8.0 | 17.7 | 0.00 | 1.75 | 0.38 | 86 | 1018.3 |
| 20260831131557 | 20 | 31 | 8.0 | 19.3 | 0.00 | 1.75 | 0.38 | 87 | 1018.3 |
| 20260831130007 | 20 | 44 | 6.4 | 16.1 | 0.00 | 1.75 | 0.38 | 88 | 1018.3 |
| 20260831124545 | 20 | 62 | 6.4 | 16.1 | 0.00 | 1.75 | 0.38 | 88 | 1018.4 |
| 20260831123006 | 20 | 73 | 8.0 | 16.1 | 0.00 | 1.75 | 0.38 | 89 | 1018.4 |
| 20260831121550 | 19 | 60 | 1.6 | 9.7 | 0.00 | 1.75 | 0.38 | 91 | 1018.2 |
| 20260831120017 | 18 | 41 | 4.8 | 14.5 | 0.00 | 1.75 | 0.38 | 91 | 1018.2 |
| 20260831114554 | 18 | 68 | 6.4 | 14.5 | 0.00 | 1.75 | 0.38 | 93 | 1018.1 |
| 20260831113021 | 18 | 48 | 4.8 | 12.9 | 0.00 | 1.75 | 0.38 | 94 | 1017.9 |
| 20260831111605 | 18 | 51 | 4.8 | 11.3 | 0.00 | 1.75 | 0.38 | 94 | 1017.8 |
| 20260831110033 | 18 | 65 | 4.8 | 9.7 | 0.00 | 1.75 | 0.38 | 95 | 1017.7 |
| 20260831104513 | 18 | 79 | 3.2 | 9.7 | 0.03 | 1.75 | 0.38 | 95 | 1017.5 |
| 20260831103038 | 18 | 43 | 3.2 | 8.0 | 0.03 | 1.75 | 0.38 | 95 | 1017.7 |
| 20260831101609 | 18 | 53 | 4.8 | 11.3 | 0.03 | 1.75 | 0.38 | 94 | 1017.0 |
| 20260831100047 | 18 | 48 | 3.2 | 9.7 | 0.03 | 1.75 | 0.38 | 94 | 1016.9 |
| 20260831094522 | 18 | 67 | 3.2 | 11.3 | 0.00 | 1.73 | 0.36 | 94 | 1016.8 |
| 20260831093056 | 18 | 50 | 3.2 | 8.0 | 0.00 | 1.73 | 0.36 | 94 | 1016.7 |
| 20260831091521 | 18 | 5 | 3.2 | 9.7 | 0.00 | 1.73 | 0.36 | 95 | 1016.6 |
| 20260831090123 | 18 | 40 | 3.2 | 9.7 | 0.00 | 1.73 | 0.36 | 95 | 1016.4 |
| 20260831084525 | 19 | 356 | 3.2 | 11.3 | 0.00 | 1.73 | 0.36 | 95 | 1016.4 |
| 20260831083112 | 19 | 21 | 3.2 | 8.0 | 0.00 | 1.73 | 0.36 | 95 | 1016.4 |
| 20260831081521 | 19 | 353 | 4.8 | 11.3 | 0.00 | 1.73 | 0.36 | 95 | 1016.1 |
| 20260831080123 | 19 | 355 | 4.8 | 9.7 | 0.00 | 1.73 | 0.36 | 95 | 1016.1 |
| 20260831074503 | 20 | 360 | 0.0 | 11.3 | 0.00 | 1.73 | 0.36 | 95 | 1015.9 |
| 20260831073041 | 20 | 73 | 0.0 | 4.8 | 0.00 | 1.73 | 0.36 | 95 | 1015.8 |
| 20260831071606 | 20 | 73 | 1.6 | 4.8 | 0.00 | 1.73 | 0.36 | 95 | 1015.6 |
| 20260831070035 | 20 | 73 | 0.0 | 4.8 | 0.00 | 1.73 | 0.36 | 95 | 1015.5 |
| 20260831064511 | 20 | 73 | 0.0 | 6.4 | 0.00 | 1.73 | 0.36 | 95 | 1015.5 |
| 20260831063051 | 20 | 73 | 1.6 | 6.4 | 0.00 | 1.73 | 0.36 | 95 | 1015.5 |
| 20260831061503 | 20 | 73 | 0.0 | 8.0 | 0.00 | 1.73 | 0.36 | 95 | 1015.5 |
| 20260831060032 | 20 | 73 | 0.0 | 11.3 | 0.00 | 1.73 | 0.36 | 95 | 1015.4 |
| 20260831054612 | 20 | 355 | 1.6 | 4.8 | 0.18 | 1.73 | 0.36 | 94 | 1015.3 |
| 20260831053057 | 20 | 356 | 0.0 | 0.0 | 0.43 | 1.73 | 0.36 | 94 | 1015.3 |
| 20260831051516 | 20 | 356 | 0.0 | 0.0 | 0.81 | 1.73 | 0.36 | 94 | 1015.2 |
| 20260831050057 | 20 | 356 | 0.0 | 4.8 | 1.14 | 1.73 | 0.36 | 94 | 1015.2 |
| 20260831044540 | 20 | 9 | 1.6 | 9.7 | 1.32 | 1.52 | 0.15 | 94 | 1015.4 |
| 20260831043103 | 21 | 297 | 0.0 | 6.4 | 1.19 | 1.30 | 1.30 | 94 | 1015.6 |
| 20260831041532 | 21 | 283 | 1.6 | 8.0 | 0.86 | 0.89 | 0.89 | 94 | 1015.6 |
| 20260831040106 | 21 | 273 | 4.8 | 12.9 | 0.58 | 0.58 | 0.58 | 94 | 1015.8 |
| 20260831034536 | 21 | 252 | 3.2 | 12.9 | 0.20 | 0.20 | 0.20 | 93 | 1015.8 |
| 20260831033112 | 21 | 259 | 4.8 | 12.9 | 0.10 | 0.10 | 0.10 | 93 | 1015.8 |
| 20260831031551 | 21 | 277 | 1.6 | 16.1 | 0.03 | 0.03 | 0.03 | 92 | 1015.9 |